Regional Weather Roundup
Issued by NWS

Home | Current Version | Previous Version | Graphics & Text | Print | Product List | Glossary On
Versions: 1 2 3 4 5 6 7 8 9 10 11 12 13 14 15 16 17 18 19 20 21 22 23 24 25 26 27
000
ASUS45 KSLC 021110
RWRUT

UTAH REGIONAL WEATHER ROUNDUP
NATIONAL WEATHER SERVICE SALT LAKE CITY UT
400 AM MST FRI DEC 02 2016

UTZ001>011-023>025-021200-

NORTHERN UTAH

CITY           SKY/WX    TMP DP  RH WIND       PRES   REMARKS
BRIGHAM CITY     N/A     29  22  78 NE3       30.17S
HILL AFB       CLEAR     23  15  74 E10       30.14S WCI  12
LOGAN          PTCLDY    24  21  88 CALM      30.18R
OGDEN          PTCLDY    22  17  81 S3        30.14S
SALT LAKE CITY PTCLDY    27  21  78 CALM      30.15S
TOOELE VALLEY  LGT SNOW  30  30 100 CALM      30.16S
WENDOVER       CLOUDY    30  14  51 CALM      30.19F
HEBER CITY     MOCLDY    14   9  79 SE3       30.10S
WEST JORDAN    MOCLDY    24  24 100 CALM      30.14F

$$

UTZ011>015-024>027-021200-

CENTRAL/NORTHEAST UTAH

CITY           SKY/WX    TMP DP  RH WIND       PRES   REMARKS
PROVO AIRPORT  CLOUDY    26  23  88 CALM      30.15F
MOAB/CANYONLAN CLOUDY    28  20  71 NW9       30.01F WCI  19
DELTA          PTCLDY    27  23  86 N8        30.10F WCI  18
PRICE          CLOUDY    26  10  50 NW8       30.01F WCI  18
ROOSEVELT      CLOUDY    28  23  80 N3        30.13S
VERNAL         CLOUDY    22  17  81 CALM      30.10F

$$

UTZ013>016-019>022-027-021200-

SOUTHERN UTAH

CITY           SKY/WX    TMP DP  RH WIND       PRES   REMARKS
BRYCE CANYON   CLOUDY    20  13  74 NE14      29.95F WCI   7
CEDAR CITY     CLOUDY    27  19  72 N9        30.00F WCI  18
MILFORD        MOCLDY    25  18  74 N9        30.06F WCI  15
ST GEORGE      SUNNY     37  19  48 SW3       30.01S
HANKSVILLE     MOCLDY    30  21  69 CALM      30.05S
BLANDING       MOCLDY    25  17  72 N5        30.02F WCI  19

$$

REGIONAL REPORTS     COLORADO/ARIZONA

CITY           SKY/WX    TMP DP  RH WIND       PRES   REMARKS
CRAIG, CO      CLOUDY    18  14  84 CALM      30.09S
GRAND JUNCTION CLOUDY    28  24  85 CALM      30.03F
RIFLE, CO      CLOUDY    25  21  85 CALM      30.06S
MONTROSE, CO   CLOUDY    20  15  81 SE7       30.05S WCI  11
CORTEZ, CO     CLOUDY    17  13  84 E7        29.97F WCI   8
COLORADO CITY    N/A     32  23  69 W3        29.98F
PAGE, AZ       MOCLDY    35  16  45 SE3       29.96S
GRAND CANYON   CLOUDY    29  15  56 NE14      29.92S WCI  18
KINGMAN, AZ    CLOUDY    38  18  44 E10       29.92F WCI  31
FLAGSTAFF, AZ  CLOUDY    26  14  60 E6        29.87F WCI  19

$$

REGIONAL REPORTS    NEVADA/IDAHO/WYOMING

CITY           SKY/WX    TMP DP  RH WIND       PRES   REMARKS
LAS VEGAS, NV  MOCLDY    48  14  25 N16       29.98F
ELY, NY        CLOUDY    21  13  71 N10       30.09F WCI  10
ELKO, NV       CLOUDY    21  16  81 CALM      30.19S
POCATELLO, ID  CLOUDY    25  23  92 SW9       30.22R WCI  15
BURLEY, ID     CLOUDY    24  21  88 CALM      30.22S
FORT BRIDGER,  CLOUDY    16  14  93 W6        30.10S WCI   7
EVANSTON, WY   CLOUDY    17  12  80 N3        30.07S
ROCK SPRINGS,  CLOUDY    11   8  88 W3        30.08S

$$




USA.gov is the U.S. government's official web portal to all federal, state and local government web resources and services.